FW7478 Weather Reports


time (UTC)temp
F
wind
direction
speed
knots
gust
knots
rain 1hr
in
rain 24hr
in
rain mn
in
humidity
%
barometer
mb
20260510044558 76 169 6.1 15.6 0.00 0.00 0.00 64 1005.5
20260510043048 76 188 7.8 13.0 0.00 0.00 0.00 64 1005.7
20260510041546 76 161 7.0 13.0 0.00 0.00 0.00 65 1005.7
20260510040050 76 184 7.8 9.6 0.00 0.00 0.00 66 1005.9
20260510034545 76 175 7.0 13.9 0.00 0.00 0.00 65 1006.0
20260510033045 76 201 7.0 10.4 0.00 0.00 0.00 66 1006.1
20260510031544 76 180 6.1 8.7 0.00 0.00 0.00 66 1006.2
20260510030052 76 178 6.1 10.4 0.00 0.00 0.00 65 1006.1
20260510024543 76 182 5.2 9.6 0.00 0.00 0.00 64 1005.9
20260510023042 76 172 6.1 8.7 0.00 0.00 0.00 63 1005.6
20260510021542 77 360 5.2 10.4 0.00 0.00 0.00 62 1005.4
20260510020043 77 360 5.2 8.7 0.00 0.00 0.00 61 1005.2
20260510014540 78 178 4.3 7.0 0.00 0.00 0.00 60 1005.3
20260510013039 79 171 4.3 7.0 0.00 0.00 0.00 58 1005.2
20260510011546 80 163 5.2 8.7 0.00 0.00 0.00 56 1005.0
20260510010039 81 163 4.3 7.8 0.00 0.00 0.00 54 1005.1
20260510004516 83 163 5.2 8.7 0.00 0.00 0.00 52 1005.1
20260510003023 84 176 5.2 9.6 0.00 0.00 0.00 49 1005.1
20260510001518 84 175 6.1 10.4 0.00 0.00 0.00 48 1005.1
20260510000014 85 156 6.1 9.6 0.00 0.00 0.00 47 1005.2
20260509234524 85 176 3.5 7.0 0.00 0.00 0.00 47 1005.2
20260509233012 86 151 6.1 10.4 0.00 0.00 0.00 45 1005.2
20260509231514 86 179 3.5 8.7 0.00 0.00 0.00 46 1005.1
20260509230011 86 171 4.3 8.7 0.00 0.00 0.00 45 1005.4
20260509224511 87 186 5.2 9.6 0.00 0.00 0.00 44 1005.3
20260509223010 87 174 4.3 8.7 0.00 0.00 0.00 43 1005.2
20260509221509 87 180 6.1 9.6 0.00 0.00 0.00 43 1005.3
20260509220020 87 233 5.2 9.6 0.00 0.00 0.00 42 1005.4
20260509180056 83 206 5.2 12.2 0.00 0.00 0.00 58 1008.4
20260509174555 81 118 3.5 7.0 0.00 0.00 0.00 60 1008.5
20260509173053 82 294 2.6 6.1 0.00 0.00 0.00 57 1008.8
20260509171552 81 238 3.5 8.7 0.00 0.00 0.00 60 1008.9
20260509161540 80 225 5.2 9.6 0.00 0.00 0.00 61 1009.3
20260509160038 80 256 2.6 7.0 0.00 0.00 0.00 65 1009.1
20260509154540 78 237 2.6 7.0 0.00 0.00 0.00 68 1009.3
20260509153039 77 258 3.5 7.0 0.00 0.00 0.00 69 1009.4
20260509151531 78 340 2.6 7.0 0.00 0.00 0.00 70 1009.3
20260509150031 77 312 0.9 7.8 0.00 0.00 0.00 72 1009.4
20260509144532 77 314 3.5 7.8 0.00 0.00 0.00 73 1009.3
20260509143024 75 302 2.6 9.6 0.00 0.00 0.00 76 1009.2
20260509141519 73 360 1.7 7.8 0.00 0.00 0.00 80 1009.2
20260509140015 70 281 1.7 7.0 0.00 0.00 0.00 83 1009.3
20260509134513 69 269 0.0 4.3 0.00 0.00 0.00 84 1009.4
20260509133010 67 360 2.6 7.0 0.00 0.00 0.00 85 1009.3
20260509131512 66 360 0.9 7.8 0.00 0.00 0.00 84 1009.1
20260509130009 65 360 3.5 7.8 0.00 0.00 0.00 83 1009.0
20260509124510 65 360 3.5 8.7 0.00 0.00 0.00 84 1008.5
20260509123016 64 360 3.5 11.3 0.00 0.00 0.00 85 1008.5
20260509121511 64 360 2.6 8.7 0.00 0.00 0.00 85 1008.4
20260509120007 64 360 4.3 9.6 0.00 0.00 0.00 85 1008.3
20260509114505 64 360 6.1 11.3 0.00 0.00 0.00 84 1008.1
20260509113006 63 360 3.5 7.8 0.00 0.00 0.00 86 1008.0
20260509111504 63 360 2.6 8.7 0.00 0.00 0.00 87 1007.8
20260509110003 63 360 4.3 10.4 0.00 0.00 0.00 88 1007.6
20260509104502 63 360 0.9 7.0 0.00 0.00 0.00 89 1007.6
20260509103001 63 360 2.6 8.7 0.00 0.00 0.00 88 1007.7
20260509101603 63 360 1.7 5.2 0.00 0.00 0.00 88 1008.0
20260509100059 64 360 2.6 7.8 0.00 0.00 0.00 87 1007.9
20260509094600 64 360 2.6 7.8 0.00 0.00 0.00 87 1007.9
20260509093059 64 360 5.2 9.6 0.00 0.00 0.00 87 1008.0
20260509091629 64 360 4.3 8.7 0.00 0.00 0.00 87 1008.1
20260509090057 64 360 7.0 13.0 0.00 0.00 0.00 86 1008.4
20260509084556 65 360 7.8 13.9 0.00 0.00 0.00 85 1008.9
20260509083056 64 360 5.2 10.4 0.00 0.00 0.00 85 1008.7
20260509081555 63 360 7.0 13.0 0.00 0.00 0.00 80 1009.0
20260509080105 63 360 5.2 12.2 0.00 0.00 0.00 81 1009.4
20260509074554 63 360 5.2 10.4 0.00 0.00 0.00 81 1009.7
20260509073115 64 360 4.3 14.8 0.00 0.00 0.00 80 1010.0
20260509071543 65 360 8.7 18.2 0.00 0.00 0.00 81 1010.7
20260509070044 66 360 12.2 29.5 0.00 0.00 0.00 86 1010.8
20260509064538 68 360 3.5 7.8 0.00 0.00 0.00 91 1010.7
20260509063036 67 360 6.1 19.1 0.00 0.00 0.00 91 1009.9
20260509061531 67 360 2.6 7.8 0.00 0.00 0.00 91 1008.1
20260509060040 67 360 1.7 7.0 0.00 0.00 0.00 90 1007.9
20260509054528 67 360 1.7 4.3 0.00 0.00 0.00 90 1007.6
20260509053032 67 360 2.6 7.0 0.00 0.00 0.00 90 1007.8
20260509051524 67 360 4.3 8.7 0.00 0.00 0.00 89 1007.8
20260509050021 68 360 2.6 10.4 0.00 0.00 0.00 89 1008.1